Weather History for Branson, MO

Change the Weather History Date:

Saturday, August 9, 2014

  Actual Average (KHRO) Record (KHRO)
Temperature  
Mean Temperature 78 °F 79 °F  
Max Temperature 89 °F 90 °F 112 °F (1934)
Min Temperature 66 °F 68 °F 52 °F (1959)
Degree Days  
Heating Degree Days 0 0  
Month to date heating degree days 0  
Since 1 June heating degree days 6  
Since 1 July heating degree days 0  
Cooling Degree Days 12 14  
Month to date cooling degree days 126  
Year to date cooling degree days 944  
Since 1 June cooling degree days 805  
Growing Degree Days 28 (Base 50)    
Moisture  
Dew Point 69 °F    
Average Humidity 90    
Maximum Humidity 100    
Minimum Humidity 55    
Precipitation  
Precipitation 0.00 in 0.12 in 2.37 in (1998)
Month to date precipitation 1.14  
Year to date precipitation 26.52  
Snow  
Snow 0.00 in 0.00 in - ()
Month to date snowfall 0.0  
Since 1 June snowfall 0.0  
Since 1 July snowfall 0.0  
Snow Depth -    
Sea Level Pressure  
Sea Level Pressure 30.02 in    
Wind  
Wind Speed 2 mph (NNW)    
Max Wind Speed 23 mph    
Max Gust Speed 44 mph    
Visibility 10 miles    
Events Rain , Thunderstorm    
T = Trace of Precipitation, MM = Missing Value Source: NWS Daily Summary

Daily Weather History Graph

Daily Weather History Graph

Search for Another Location

Airport:

Trip Planner

Search our weather history database for the weather conditions in past years. The results will help you decide how hot, cold, wet, or windy it might be!

Date:

Astronomy

Aug. 09, 2014 Rise Set
Actual Time 6:25 AM CDT 8:10 PM CDT
Civil Twilight 5:57 AM CDT 8:38 PM CDT
Nautical Twilight 5:23 AM CDT 9:11 PM CDT
Astronomical Twilight 4:48 AM CDT 9:47 PM CDT
Moon 7:13 PM CDT (8/9) 5:06 AM CDT (8/9)
Length of Visible Light 14h 40m
Length of Day
13h 44m
Waxing Gibbous, 98% of the Moon is Illuminated
Aug 9
Waxing Gibbous
Aug 10
Full
Aug 17
Last Quarter
Aug 25
New
Sep 2
First Quarter

Hourly Weather History & Observations

Time (CDT) Temp. Heat Index Dew Point Humidity Pressure Visibility Wind Dir Wind Speed Gust Speed Precip Events Conditions
12:15 AM 73.4 °F - 71.6 °F 94% 30.00 in 10.0 mi Calm Calm - N/A   Clear
12:35 AM 73.4 °F - 71.6 °F 94% 30.00 in 10.0 mi Calm Calm - N/A   Clear
12:55 AM 73.4 °F - 71.6 °F 94% 30.00 in 10.0 mi Calm Calm - N/A   Clear
1:15 AM 73.4 °F - 71.6 °F 94% 30.00 in 10.0 mi NNE 3.5 mph - N/A   Partly Cloudy
1:35 AM 73.4 °F - 71.6 °F 94% 30.00 in 10.0 mi Calm Calm - N/A   Partly Cloudy
1:55 AM 73.4 °F - 69.8 °F 88% 29.99 in 10.0 mi NE 3.5 mph - N/A   Clear
2:15 AM 73.4 °F - 69.8 °F 88% 29.98 in 10.0 mi Calm Calm - N/A   Mostly Cloudy
2:35 AM 71.6 °F - 69.8 °F 94% 29.98 in 10.0 mi NE 3.5 mph - N/A   Overcast
2:55 AM 71.6 °F - 68.0 °F 88% 29.98 in 10.0 mi Calm Calm - N/A   Scattered Clouds
3:15 AM 71.6 °F - 68.0 °F 88% 29.99 in 10.0 mi Calm Calm - N/A   Clear
3:35 AM 71.6 °F - 68.0 °F 88% 29.99 in 10.0 mi Calm Calm - N/A   Mostly Cloudy
3:55 AM 71.6 °F - 68.0 °F 88% 29.99 in 10.0 mi North 4.6 mph - N/A   Overcast
4:15 AM 71.6 °F - 68.0 °F 88% 30.00 in 10.0 mi North 3.5 mph - N/A   Scattered Clouds
4:35 AM 69.8 °F - 68.0 °F 94% 30.00 in 10.0 mi Calm Calm - N/A   Clear
4:55 AM 69.8 °F - 68.0 °F 94% 30.00 in 10.0 mi Calm Calm - N/A   Mostly Cloudy
5:15 AM 69.8 °F - 68.0 °F 94% 30.01 in 10.0 mi Calm Calm - N/A   Mostly Cloudy
5:35 AM 69.8 °F - 68.0 °F 94% 30.01 in 10.0 mi North 3.5 mph - N/A   Scattered Clouds
5:55 AM 68.0 °F - 68.0 °F 100% 30.01 in 10.0 mi Calm Calm - N/A   Mostly Cloudy
6:15 AM 68.0 °F - 68.0 °F 100% 30.02 in 10.0 mi Calm Calm - N/A   Mostly Cloudy
6:35 AM 68.0 °F - 68.0 °F 100% 30.02 in 9.0 mi Calm Calm - N/A   Partly Cloudy
7:45 AM 71.6 °F - 68.0 °F 88% 30.04 in 10.0 mi Calm Calm - N/A   Mostly Cloudy
8:45 AM 80.6 °F 85.4 °F 73.4 °F 79% 30.04 in 10.0 mi Calm Calm - N/A   Scattered Clouds
9:45 AM 84.2 °F 89.6 °F 71.6 °F 66% 30.04 in 10.0 mi Calm Calm - N/A   Scattered Clouds
11:45 AM 89.6 °F 96.2 °F 71.6 °F 55% 30.05 in 10.0 mi WSW 4.6 mph - N/A   Mostly Cloudy
2:45 PM 89.6 °F 96.2 °F 71.6 °F 55% 30.02 in 10.0 mi WNW 4.6 mph - N/A Thunderstorm Thunderstorm
3:10 PM 80.6 °F 84.6 °F 71.6 °F 74% 30.05 in 1.5 mi West 16.1 mph 34.5 mph N/A Rain , Thunderstorm Light Thunderstorms and Rain
3:20 PM 73.4 °F - 69.8 °F 88% 30.04 in 0.5 mi West 23.0 mph 43.7 mph N/A Rain , Thunderstorm Heavy Thunderstorms and Rain
3:51 PM 69.8 °F - 68.0 °F 94% 30.03 in 10.0 mi SSE 8.1 mph - N/A Rain Light Rain
4:46 PM 69.8 °F - 68.0 °F 94% 30.03 in 10.0 mi SSW 5.8 mph - N/A Rain Light Rain
5:45 PM 69.8 °F - 68.0 °F 94% 30.04 in 10.0 mi WNW 4.6 mph - N/A   Mostly Cloudy
7:45 PM 69.8 °F - 68.0 °F 94% 30.00 in 10.0 mi Calm Calm - N/A   Mostly Cloudy
8:45 PM 68.0 °F - 68.0 °F 100% 30.01 in 10.0 mi Calm Calm - N/A   Mostly Cloudy
9:15 PM 68.0 °F - 68.0 °F 100% 30.02 in 10.0 mi Calm Calm - N/A   Clear
9:35 PM 68.0 °F - 68.0 °F 100% 30.02 in 10.0 mi Calm Calm - N/A   Clear
9:55 PM 68.0 °F - 66.2 °F 94% 30.03 in 10.0 mi Calm Calm - N/A   Clear
10:15 PM 68.0 °F - 66.2 °F 94% 30.03 in 10.0 mi Calm Calm - N/A   Clear
11:15 PM 66.2 °F - 66.2 °F 100% 30.05 in 10.0 mi Calm Calm - N/A   Mostly Cloudy
11:35 PM 66.2 °F - 66.2 °F 100% 30.05 in 10.0 mi Calm Calm - N/A   Overcast
11:55 PM 66.2 °F - 66.2 °F 100% 30.05 in 10.0 mi Calm Calm - N/A   Overcast